Regional Weather Roundup
Issued by NWS

Home | Current Version | Previous Version | Graphics & Text | Print | Product List | Glossary On
Versions: 1 2 3 4 5 6 7 8 9 10 11 12 13 14 15 16 17 18 19 20 21 22 23 24 25 26 27 28 29 30 31 32 33 34 35 36 37 38 39 40 41 42 43 44 45 46 47 48 49 50
283
ASUS44 KLIX 232001
RWRLA
LOUISIANA WEATHER ROUNDUP
NATIONAL WEATHER SERVICE NEW ORLEANS LA
200 PM CST SUN NOV 23 2014

NOTE: "FAIR" INDICATES FEW OR NO CLOUDS BELOW 12,000 FEET WITH NO
      SIGNIFICANT WEATHER AND/OR OBSTRUCTIONS TO VISIBILITY.
      SKY/WX - SKY CONDITION AND SIGNIFICANT WEATHER.
      TMP - AIR TEMPERATURE.    DP   - DEWPOINT TEMPERATURE.
      RH  - RELATIVE HUMIDITY.  PRES - PRESSURE.
      HX  - HEAT INDEX.         WCI  - WIND CHILL INDEX.

*  THESE STATIONS ARE NOT NWS OR FAA STATIONS AND ARE NOT UNDER
   NWS QUALITY CONTROL.

LAZ040-048-061>063-065-066-069-232100-
SOUTHEAST LOUISIANA

CITY           SKY/WX    TMP DP  RH WIND       PRES   REMARKS
N.O. AUDUBON   NOT AVBL
N.O. INTL ARPT PTSUNNY   73  59  61 SW16      29.64F
N.O. LAKEFRONT MOSUNNY   73  59  61 SW23      29.65F
N.O. DOWNTOWN* FAIR      73  59  60 SW10G26   29.66F
SLIDELL        MOSUNNY   73  59  61 SW13G23   29.63F
BATON ROUGE    PTSUNNY   74  58  57 SW24G36   29.60F
BOOTHVILLE     SUNNY     69  64  84 SW16G28   29.69F
BELLE CHASSE   MOSUNNY   74  60  61 SW22G31   29.66F
BOGALUSA*        N/A     74  59  60 SW16G22   29.62F
NEW ROADS*     NOT AVBL
GONZALES*      NOT AVBL
HAMMOND*       NOT AVBL
HOUMA*         PTSUNNY   73  64  73 SW17G25   29.66F
PORT FOURCHON* CLEAR     73  64  73 SW15G23   29.71S

$$

LAZ041-044-053-054-232100-
SOUTHWEST LOUISIANA

CITY           SKY/WX    TMP DP  RH WIND       PRES   REMARKS
LAKE CHARLES   SUNNY     71  59  65 SW13G22   29.57F
LAFAYETTE      MOSUNNY   73  60  63 SW21G31   29.61F
PATTERSON      PTSUNNY   73  64  73 SW23G31   29.66F
SALT POINT       N/A     71  62  73 VRB5      29.65F
NEW IBERIA     LGT RAIN  75  62  64 SW18G30   29.63F
CHENAULT AIRPK SUNNY     72  57  60 SW16G23   29.58F

$$

LAZ027-028-232100-
CENTRAL LOUISIANA

CITY           SKY/WX    TMP DP  RH WIND       PRES   REMARKS
FORT POLK      MOSUNNY   71  60  66 S16       29.52F
ALEXANDRIA INT LGT RAIN  71  60  68 SW14      29.51F
ALEXANDRIA     PTSUNNY   72  58  61 SW14G22   29.53F

$$

LAZ001-002-232100-
NORTHWEST LOUISIANA

CITY           SKY/WX    TMP DP  RH WIND       PRES   REMARKS
SHREVEPORT     MOSUNNY   72  59  63 S16G22    29.43F
BARKSDALE AFB  SUNNY     72  59  64 SW15      29.43F
DTN SHREVEPORT SUNNY     71  58  63 SW16G23   29.43F

$$

LAZ014-016-232100-
NORTHEAST LOUISIANA

CITY           SKY/WX    TMP DP  RH WIND       PRES   REMARKS
MONROE         CLOUDY    65  62  90 SW13      29.48S
TALLULAH       CLOUDY    67  60  78 SW10G20   29.49F

$$




USA.gov is the U.S. government's official web portal to all federal, state and local government web resources and services.